DELTA 1 DEB, 7140

Orbit data source: Space-Track

DELTA 1 DEB, 7140 is space debris in SSO originally from a launch on Tue, 06 Nov 1973 UTC launched from the Air Force Western Test Range (AFWTR). Debris objects in space refer to the collection of defunct objects orbiting the Earth. Examples of debris include non-operational satellites, rocket bodies, and fragments generated from explosions, collisions, or faulty payload assembly.

Loading next visibility...
Identifier
7140, 1973-086DE
Orbit
SSO
Country
Flag of USUS
Related business
Manufacturer
Unknown
Mission
Spacecraft
Bus & Motor
Unknown
Mass
Unknown
Launch date (UTC)
1973-11-06 (52 years ago)
Launch vehicle
Unknown
Launch site
Air Force Western Test Range (AFWTR)
Object type
Payload
Rocket body
Debris
Shape & HBR
Unknown shape, 0.1 m
Radar Cross Section
Small (<0.1 m²)

Expand to show TLE details & history
Last TLE update: 1 day ago

TLE from 1 day ago
0 DELTA 1 DEB
1  7140U 73086DE  26121.91659093 -.00000011  00000-0  28031-3 0  9990
2  7140 102.4230 110.5464 0021634  85.6183 333.2298 12.36330563366933
Epoch: 2026-05-01T21:59Z
TLE epoch observation values (Epoch: 2026-05-01T21:59:53.456Z)
Latitude
56.68608°
Longitude
-98.75194°
Altitude
1,516.193 km
Speed
7.119 km/s
True Right ascension
06h 04m 15s
True Declination
56° 32' 36"
Sunlit
Object was in daylight at epoch
Visualization orbit readout
Latitude
Unknown
Longitude
Unknown
Altitude
Unknown
Speed
Unknown
Apparent Right ascension
Unknown
Apparent Declination
Unknown
Sunlit
N/A
Visualization observer readout
Local Sidereal Time
08:19:31
Azimuth
Unknown
Elevation
Unknown
Doppler factor
Unknown
Orbital elements
Apogee altitude
1,536.888 km
Perigee altitude
1,502.715 km
Semi-major axis
7,897.939 km
Eccentricity
0.00216
Inclination
102.423°
RAAN
110.5464°
Arg. of periapsis
85.6183°
True anomaly
333.11787°
Mean anomaly
333.2298°
Eccentric anomaly
333.17386°
Mean motion
3.09224 °/min
Orbital period
116.42 mins
BSTAR
0.00028031
Loading maneuver chart data...
Computing Atmospheric mass density...
Loading historical data...
Loading historical data...
Loading historical data...
Loading historical data...
Loading historical data...
Loading historical data...
Loading historical data...

Documentation

Showing up to 5 results
|